LNK390 FACT-FVFA

Flight info

Callsign LNK390
Flight time N/A
Altitude 37000
Route KODES UZ30 UPV UT916 BONAL/N0437F380
Aircraft E195/M-SDE3GILORVW/S

Departure

Time 2026-05-07 14:21
Airport Cape Town International Airport (FACT)

Arrival

Time N/A
Airport Victoria Falls International Airport (FVFA)
Time Latitude Longitude Altitude Speed Heading
2026-05-07 13:52 -33.97074 18.59861 166 ft 0 kts 255°
2026-05-07 14:12 -33.97071 18.59874 163 ft 3 kts 255°
2026-05-07 14:12 -33.97066 18.59897 163 ft 3 kts 255°
2026-05-07 14:12 -33.97062 18.59917 163 ft 3 kts 258°
2026-05-07 14:12 -33.97060 18.59939 163 ft 3 kts 293°
2026-05-07 14:13 -33.97070 18.59956 163 ft 3 kts 335°
2026-05-07 14:13 -33.97088 18.59964 163 ft 2 kts 345°
2026-05-07 14:13 -33.97091 18.59965 163 ft 1 kts 345°
2026-05-07 14:16 -33.97090 18.59964 166 ft 1 kts 345°
2026-05-07 14:16 -33.97075 18.59959 166 ft 4 kts 345°
2026-05-07 14:17 -33.97042 18.59949 166 ft 7 kts 345°
2026-05-07 14:17 -33.96982 18.59929 166 ft 11 kts 345°
2026-05-07 14:17 -33.96894 18.59900 166 ft 15 kts 344°
2026-05-07 14:17 -33.96784 18.59864 166 ft 18 kts 345°
2026-05-07 14:18 -33.96654 18.59821 166 ft 21 kts 345°
2026-05-07 14:18 -33.96505 18.59779 166 ft 23 kts 350°
2026-05-07 14:18 -33.96334 18.59742 166 ft 27 kts 349°
2026-05-07 14:18 -33.96180 18.59782 166 ft 23 kts 46°
2026-05-07 14:19 -33.96080 18.59902 166 ft 7 kts 46°
2026-05-07 14:19 -33.96079 18.59903 166 ft 1 kts 46°
2026-05-07 14:19 -33.96079 18.59904 166 ft 0 kts 46°
2026-05-07 14:19 -33.96075 18.59908 166 ft 3 kts 46°
2026-05-07 14:20 -33.96053 18.59937 166 ft 7 kts 48°
2026-05-07 14:20 -33.96051 18.59997 164 ft 8 kts 115°
2026-05-07 14:20 -33.96090 18.60031 165 ft 6 kts 165°
2026-05-07 14:20 -33.96230 18.60071 164 ft 53 kts 168°
2026-05-07 14:21 -33.96812 18.60261 169 ft 119 kts 166°
2026-05-07 14:21 -33.97782 18.60535 379 ft 161 kts 169°
2026-05-07 14:21 -33.98938 18.60895 1152 ft 178 kts 163°
2026-05-07 14:21 -34.00111 18.61354 2028 ft 176 kts 160°
2026-05-07 14:22 -34.01314 18.61881 2574 ft 185 kts 159°
2026-05-07 14:22 -34.02560 18.62427 3245 ft 199 kts 159°
2026-05-07 14:22 -34.03913 18.63026 3753 ft 217 kts 158°
2026-05-07 14:22 -34.05355 18.63769 4209 ft 236 kts 145°
2026-05-07 14:23 -34.06411 18.65342 4756 ft 252 kts 111°
2026-05-07 14:23 -34.06542 18.67452 5571 ft 260 kts 79°
2026-05-07 14:23 -34.05670 18.69380 6336 ft 271 kts 47°
2026-05-07 14:23 -34.04046 18.70538 7027 ft 282 kts 17°
2026-05-07 14:24 -34.02083 18.70751 7717 ft 288 kts
2026-05-07 14:24 -34.00081 18.70710 8410 ft 291 kts 359°
2026-05-07 14:24 -33.98030 18.70622 9101 ft 296 kts 358°
2026-05-07 14:24 -33.95963 18.70525 9805 ft 300 kts 360°
2026-05-07 14:25 -33.93861 18.70596 10488 ft 303 kts
2026-05-07 14:25 -33.91740 18.70713 11149 ft 307 kts
2026-05-07 14:25 -33.89628 18.70847 11856 ft 309 kts
2026-05-07 14:25 -33.87424 18.70987 12071 ft 330 kts
2026-05-07 14:26 -33.85068 18.71136 12318 ft 349 kts
2026-05-07 14:26 -33.82590 18.71295 12617 ft 364 kts
2026-05-07 14:26 -33.80011 18.71457 13013 ft 375 kts
2026-05-07 14:26 -33.77410 18.71623 13641 ft 379 kts
2026-05-07 14:27 -33.74748 18.71790 14232 ft 383 kts
2026-05-07 14:27 -33.72072 18.71958 14800 ft 386 kts
2026-05-07 14:27 -33.69388 18.72128 15361 ft 390 kts
2026-05-07 14:27 -33.66670 18.72298 15917 ft 393 kts
2026-05-07 14:28 -33.63922 18.72470 16472 ft 397 kts
2026-05-07 14:28 -33.61143 18.72646 17009 ft 400 kts
2026-05-07 14:28 -33.58401 18.72816 17551 ft 403 kts
2026-05-07 14:28 -33.55572 18.72994 18102 ft 407 kts
2026-05-07 14:29 -33.52746 18.73171 18624 ft 410 kts
2026-05-07 14:29 -33.49876 18.73350 19141 ft 413 kts
2026-05-07 14:29 -33.46998 18.73530 19695 ft 416 kts
2026-05-07 14:29 -33.44110 18.73710 20249 ft 419 kts
2026-05-07 14:30 -33.41170 18.73895 20786 ft 422 kts
2026-05-07 14:30 -33.38278 18.74075 21280 ft 425 kts
2026-05-07 14:30 -33.35308 18.74258 21759 ft 428 kts
2026-05-07 14:30 -33.32337 18.74444 22226 ft 431 kts
2026-05-07 14:31 -33.29342 18.74630 22658 ft 433 kts
2026-05-07 14:31 -33.26332 18.74817 23084 ft 436 kts 360°
2026-05-07 14:31 -33.23277 18.75008 23503 ft 439 kts 360°
2026-05-07 14:31 -33.20216 18.75198 23893 ft 441 kts 360°
2026-05-07 14:32 -33.17185 18.75386 24231 ft 443 kts 359°
2026-05-07 14:32 -33.14072 18.75856 24562 ft 451 kts 13°
2026-05-07 14:32 -33.11158 18.77310 24906 ft 457 kts 25°
2026-05-07 14:32 -33.08349 18.78957 25264 ft 458 kts 21°
2026-05-07 14:33 -33.05438 18.80583 25619 ft 461 kts 23°
2026-05-07 14:33 -33.02519 18.82206 25970 ft 464 kts 22°
2026-05-07 14:33 -32.99586 18.83844 26308 ft 466 kts 22°
2026-05-07 14:33 -32.96641 18.85475 26636 ft 469 kts 22°
2026-05-07 14:34 -32.93677 18.87123 26928 ft 471 kts 22°
2026-05-07 14:34 -32.90705 18.88772 27220 ft 473 kts 22°
2026-05-07 14:34 -32.87713 18.90430 27492 ft 476 kts 22°
2026-05-07 14:34 -32.84748 18.92075 27759 ft 478 kts 22°
2026-05-07 14:35 -32.81718 18.93752 28029 ft 480 kts 21°
2026-05-07 14:35 -32.78681 18.95433 28277 ft 482 kts 21°
2026-05-07 14:35 -32.75636 18.97118 28539 ft 484 kts 21°
2026-05-07 14:35 -32.72609 18.98789 28808 ft 486 kts 21°
2026-05-07 14:36 -32.69509 19.00503 29068 ft 488 kts 21°
2026-05-07 14:36 -32.66423 19.02205 29298 ft 490 kts 21°
2026-05-07 14:36 -32.63343 19.03905 29661 ft 490 kts 21°
2026-05-07 14:36 -32.60285 19.05590 30053 ft 489 kts 21°
2026-05-07 14:37 -32.57172 19.07303 30415 ft 489 kts 21°
2026-05-07 14:37 -32.51032 19.10678 31030 ft 488 kts 21°
2026-05-07 14:37 -32.47966 19.12364 31295 ft 489 kts 21°
2026-05-07 14:38 -32.44881 19.14058 31558 ft 488 kts 20°
2026-05-07 14:38 -32.41803 19.15746 31797 ft 489 kts 20°
2026-05-07 14:38 -32.38702 19.17444 32064 ft 489 kts 20°
2026-05-07 14:38 -32.35625 19.19131 32332 ft 488 kts 20°
2026-05-07 14:39 -32.32544 19.20816 32465 ft 490 kts 20°
2026-05-07 14:39 -32.29494 19.22485 32716 ft 489 kts 20°
2026-05-07 14:39 -32.26358 19.24199 32968 ft 489 kts 20°
2026-05-07 14:39 -32.23308 19.25864 33197 ft 489 kts 20°
2026-05-07 14:40 -32.20228 19.27544 33429 ft 489 kts 20°
2026-05-07 14:40 -32.17132 19.29232 33653 ft 490 kts 20°
2026-05-07 14:40 -32.14029 19.30922 33852 ft 490 kts 20°
2026-05-07 14:40 -32.10954 19.32597 34093 ft 490 kts 19°
2026-05-07 14:41 -32.07852 19.34283 34308 ft 490 kts 20°
2026-05-07 14:41 -32.04753 19.35968 34542 ft 489 kts 20°
2026-05-07 14:41 -32.01673 19.37643 34769 ft 489 kts 20°
2026-05-07 14:41 -31.98592 19.39313 34980 ft 489 kts 19°
2026-05-07 14:42 -31.95506 19.40988 35203 ft 488 kts 19°
2026-05-07 14:42 -31.92416 19.42663 35429 ft 487 kts 19°
2026-05-07 14:42 -31.89379 19.44306 35634 ft 487 kts 19°
2026-05-07 14:42 -31.86303 19.45972 35837 ft 487 kts 19°
2026-05-07 14:43 -31.83216 19.47641 36055 ft 486 kts 19°
2026-05-07 14:43 -31.80166 19.49288 36269 ft 485 kts 19°
2026-05-07 14:43 -31.77087 19.50952 36477 ft 485 kts 19°
2026-05-07 14:43 -31.74060 19.52585 36690 ft 484 kts 19°
2026-05-07 14:44 -31.70972 19.54249 36907 ft 484 kts 19°
2026-05-07 14:44 -31.67976 19.55869 37034 ft 468 kts 19°
2026-05-07 14:44 -31.65069 19.57431 37068 ft 456 kts 19°
2026-05-07 14:44 -31.62185 19.58978 37128 ft 460 kts 19°
2026-05-07 14:45 -31.56296 19.62145 37149 ft 469 kts 19°
2026-05-07 14:45 -31.50295 19.65366 37155 ft 479 kts 19°
2026-05-07 14:46 -31.44233 19.68617 37144 ft 483 kts 19°
2026-05-07 14:46 -31.38114 19.71890 37142 ft 480 kts 19°
2026-05-07 14:47 -31.32060 19.75126 37140 ft 481 kts 19°
2026-05-07 14:47 -31.25978 19.78372 37131 ft 480 kts 19°
2026-05-07 14:48 -31.19911 19.81605 37126 ft 482 kts 19°
2026-05-07 14:48 -31.13793 19.84861 37140 ft 481 kts 19°
2026-05-07 14:49 -31.07702 19.88098 37128 ft 482 kts 19°
2026-05-07 14:49 -31.01641 19.91314 37133 ft 481 kts 18°
2026-05-07 14:50 -30.95554 19.94539 37123 ft 481 kts 18°
2026-05-07 14:50 -30.89486 19.97751 37128 ft 482 kts 18°
2026-05-07 14:51 -30.83394 20.00970 37133 ft 481 kts 18°
2026-05-07 14:51 -30.77285 20.04193 37113 ft 481 kts 18°
2026-05-07 14:52 -30.71169 20.07415 37126 ft 482 kts 18°
2026-05-07 14:52 -30.65109 20.10605 37123 ft 482 kts 18°
2026-05-07 14:53 -30.58997 20.13817 37126 ft 482 kts 18°
2026-05-07 14:53 -30.52886 20.17023 37123 ft 482 kts 18°
2026-05-07 14:54 -30.46776 20.20227 37128 ft 482 kts 18°
2026-05-07 14:54 -30.40653 20.23432 37121 ft 482 kts 18°
2026-05-07 14:55 -30.34571 20.26611 37127 ft 483 kts 18°
2026-05-07 14:55 -30.28451 20.29807 37121 ft 483 kts 18°
2026-05-07 14:56 -30.22315 20.33006 37116 ft 484 kts 18°
2026-05-07 14:56 -30.16194 20.36194 37133 ft 484 kts 18°
2026-05-07 14:57 -30.10082 20.39371 37132 ft 483 kts 18°
2026-05-07 14:57 -30.03954 20.42552 37124 ft 484 kts 18°
2026-05-07 14:58 -29.97821 20.45733 37115 ft 484 kts 18°
2026-05-07 14:58 -29.91656 20.48926 37132 ft 484 kts 18°
2026-05-07 14:59 -29.85550 20.52084 37123 ft 484 kts 18°
2026-05-07 14:59 -29.79409 20.55253 37132 ft 484 kts 18°
2026-05-07 15:00 -29.73264 20.58423 37134 ft 485 kts 18°
2026-05-07 15:00 -29.67145 20.61575 37130 ft 485 kts 18°
2026-05-07 15:01 -29.60980 20.64746 37141 ft 485 kts 17°
2026-05-07 15:01 -29.54836 20.67902 37139 ft 485 kts 17°
2026-05-07 15:02 -29.48677 20.71060 37137 ft 485 kts 17°
2026-05-07 15:02 -29.42515 20.74218 37138 ft 485 kts 17°
2026-05-07 15:03 -29.36358 20.77367 37142 ft 485 kts 17°
2026-05-07 15:03 -29.30191 20.80518 37139 ft 485 kts 17°
2026-05-07 15:04 -29.24067 20.83643 37146 ft 485 kts 17°
2026-05-07 15:04 -29.17916 20.86778 37140 ft 485 kts 17°
2026-05-07 15:05 -29.11740 20.89921 37148 ft 485 kts 17°
2026-05-07 15:05 -29.05624 20.93029 37162 ft 485 kts 17°
2026-05-07 15:06 -28.99463 20.96156 37140 ft 485 kts 17°
2026-05-07 15:06 -28.93297 20.99282 37141 ft 485 kts 17°
2026-05-07 15:07 -28.87104 21.02417 37155 ft 486 kts 17°
2026-05-07 15:07 -28.80975 21.05515 37157 ft 486 kts 17°
2026-05-07 15:08 -28.74789 21.08639 37153 ft 486 kts 17°
2026-05-07 15:08 -28.68621 21.11750 37162 ft 486 kts 17°
2026-05-07 15:09 -28.62432 21.14865 37154 ft 486 kts 17°
2026-05-07 15:09 -28.56285 21.17957 37161 ft 486 kts 16°
2026-05-07 15:10 -28.50100 21.21064 37151 ft 486 kts 16°
2026-05-07 15:10 -28.43919 21.24167 37164 ft 486 kts 17°
2026-05-07 15:11 -28.38116 21.28289 37153 ft 502 kts 34°
2026-05-07 15:11 -28.33005 21.33776 37166 ft 505 kts 38°
2026-05-07 15:12 -28.27949 21.39239 37150 ft 505 kts 38°
2026-05-07 15:12 -28.22843 21.44738 37158 ft 505 kts 38°
2026-05-07 15:13 -28.17766 21.50195 37153 ft 505 kts 38°
2026-05-07 15:13 -28.12651 21.55689 37158 ft 505 kts 38°
2026-05-07 15:14 -28.07585 21.61121 37147 ft 505 kts 38°
2026-05-07 15:14 -28.02480 21.66586 37147 ft 505 kts 38°
2026-05-07 15:15 -27.97377 21.72044 37148 ft 505 kts 38°
2026-05-07 15:15 -27.92262 21.77508 37146 ft 505 kts 38°
2026-05-07 15:16 -27.87157 21.82952 37147 ft 505 kts 38°
2026-05-07 15:16 -27.82063 21.88377 37135 ft 505 kts 37°
2026-05-07 15:17 -27.76954 21.93811 37148 ft 505 kts 37°
2026-05-07 15:17 -27.71846 21.99237 37136 ft 505 kts 37°
2026-05-07 15:18 -27.66720 22.04675 37146 ft 505 kts 37°
2026-05-07 15:18 -27.61630 22.10065 37137 ft 505 kts 37°
2026-05-07 15:19 -27.56510 22.15481 37143 ft 505 kts 37°
2026-05-07 15:19 -27.51335 22.20827 37136 ft 500 kts 31°
2026-05-07 15:20 -27.45496 22.24817 37141 ft 485 kts 16°
2026-05-07 15:20 -27.39391 22.28085 37138 ft 485 kts 17°
2026-05-07 15:21 -27.33339 22.31305 37134 ft 485 kts 17°
2026-05-07 15:21 -27.27224 22.34554 37131 ft 485 kts 17°
2026-05-07 15:22 -27.21126 22.37789 37140 ft 485 kts 17°
2026-05-07 15:22 -27.15055 22.41007 37129 ft 484 kts 17°
2026-05-07 15:23 -27.08962 22.44233 37131 ft 485 kts 17°
2026-05-07 15:23 -27.02881 22.47449 37120 ft 484 kts 17°
2026-05-07 15:24 -26.96779 22.50670 37133 ft 484 kts 17°
2026-05-07 15:24 -26.90680 22.53888 37117 ft 484 kts 17°
2026-05-07 15:25 -26.84643 22.57070 37130 ft 484 kts 17°
2026-05-07 15:25 -26.78549 22.60277 37115 ft 484 kts 17°
2026-05-07 15:26 -26.72453 22.63480 37124 ft 483 kts 17°
2026-05-07 15:26 -26.66365 22.66677 37118 ft 483 kts 17°
2026-05-07 15:27 -26.60321 22.69846 37121 ft 483 kts 17°
2026-05-07 15:27 -26.54239 22.73031 37110 ft 483 kts 17°
2026-05-07 15:28 -26.48152 22.76216 37101 ft 483 kts 16°
2026-05-07 15:28 -26.43102 22.78855 37121 ft 483 kts 16°
2026-05-07 15:29 -26.36034 22.82544 37113 ft 482 kts 16°
2026-05-07 15:29 -26.29955 22.85714 37116 ft 482 kts 16°
2026-05-07 15:30 -26.23880 22.88877 37107 ft 482 kts 16°
2026-05-07 15:30 -26.17810 22.92035 37110 ft 482 kts 16°
2026-05-07 15:31 -26.12751 22.94663 37103 ft 482 kts 16°
2026-05-07 15:31 -26.05694 22.98325 37106 ft 482 kts 16°
2026-05-07 15:32 -26.00610 23.00960 37104 ft 481 kts 16°
2026-05-07 15:32 -25.94575 23.04085 37103 ft 482 kts 15°
2026-05-07 15:33 -25.87514 23.07738 37105 ft 481 kts 15°
2026-05-07 15:33 -25.81442 23.10875 37102 ft 481 kts 15°
2026-05-07 15:34 -25.75385 23.13999 37111 ft 481 kts 15°
2026-05-07 15:34 -25.70346 23.16597 37103 ft 481 kts 15°
2026-05-07 15:35 -25.64286 23.19716 37110 ft 480 kts 15°
2026-05-07 15:35 -25.58206 23.22844 37101 ft 480 kts 15°
2026-05-07 15:36 -25.51194 23.26446 37114 ft 480 kts 15°
2026-05-07 15:36 -25.46146 23.29037 37103 ft 479 kts 15°
2026-05-07 15:37 -25.40108 23.32131 37110 ft 479 kts 15°
2026-05-07 15:37 -25.33070 23.35734 37101 ft 479 kts 15°
2026-05-07 15:38 -25.28038 23.38286 37101 ft 481 kts 17°
2026-05-07 15:38 -25.22056 23.41774 37115 ft 484 kts 19°
2026-05-07 15:39 -25.16182 23.45248 37108 ft 483 kts 19°
2026-05-07 15:39 -25.10265 23.48693 37114 ft 480 kts 16°
2026-05-07 15:40 -25.04133 23.51435 37106 ft 473 kts 11°
2026-05-07 15:40 -24.98034 23.53991 37112 ft 472 kts 11°
2026-05-07 15:41 -24.91903 23.56554 37107 ft 472 kts 11°
2026-05-07 15:41 -24.85752 23.59104 37111 ft 470 kts
2026-05-07 15:42 -24.79644 23.61793 37107 ft 474 kts 12°
2026-05-07 15:42 -24.73543 23.64558 37108 ft 474 kts 12°
2026-05-07 15:43 -24.67490 23.67301 37113 ft 474 kts 12°
2026-05-07 15:43 -24.61392 23.70058 37105 ft 474 kts 12°
2026-05-07 15:44 -24.55303 23.72808 37111 ft 473 kts 12°
2026-05-07 15:44 -24.49205 23.75559 37103 ft 473 kts 12°
2026-05-07 15:45 -24.43149 23.78322 37098 ft 473 kts 12°
2026-05-07 15:45 -24.37037 23.80967 37114 ft 472 kts 12°
2026-05-07 15:46 -24.27867 23.84918 37113 ft 472 kts 12°
2026-05-07 15:47 -24.21763 23.87532 37110 ft 471 kts 11°
2026-05-07 15:47 -24.15695 23.90171 37107 ft 472 kts 12°
2026-05-07 15:48 -24.09588 23.92831 37105 ft 472 kts 12°
2026-05-07 15:48 -24.03481 23.95468 37108 ft 470 kts 11°
2026-05-07 15:49 -23.97405 23.98003 37100 ft 469 kts 10°
2026-05-07 15:49 -23.91299 24.00595 37108 ft 472 kts 12°
2026-05-07 15:50 -23.85182 24.03240 37095 ft 472 kts 12°
2026-05-07 15:50 -23.79091 24.05879 37106 ft 471 kts 11°
2026-05-07 15:51 -23.73017 24.08464 37094 ft 471 kts 12°
2026-05-07 15:51 -23.66910 24.11064 37097 ft 471 kts 12°
2026-05-07 15:52 -23.60811 24.13667 37092 ft 471 kts 12°
2026-05-07 15:52 -23.54695 24.16241 37092 ft 471 kts 12°
2026-05-07 15:53 -23.48577 24.18818 37091 ft 471 kts 12°
2026-05-07 15:53 -23.42513 24.21370 37089 ft 471 kts 12°
2026-05-07 15:54 -23.36403 24.23940 37090 ft 471 kts 12°
2026-05-07 15:54 -23.30291 24.26508 37088 ft 471 kts 12°
2026-05-07 15:55 -23.24213 24.29057 37085 ft 471 kts 12°
2026-05-07 15:55 -23.18101 24.31620 37072 ft 471 kts 12°
2026-05-07 15:56 -23.11996 24.34177 37072 ft 471 kts 12°
2026-05-07 15:56 -23.05932 24.36715 37088 ft 471 kts 12°
2026-05-07 15:57 -22.99770 24.39289 37077 ft 471 kts 12°
2026-05-07 15:57 -22.93692 24.41827 37084 ft 471 kts 12°
2026-05-07 15:58 -22.87580 24.44378 37070 ft 471 kts 12°
2026-05-07 15:58 -22.81466 24.46927 37082 ft 471 kts 12°
2026-05-07 15:59 -22.75389 24.49439 37074 ft 471 kts 12°
2026-05-07 15:59 -22.69289 24.52028 37076 ft 471 kts 12°
2026-05-07 16:00 -22.63186 24.54612 37073 ft 471 kts 12°
2026-05-07 16:00 -22.57072 24.57196 37073 ft 471 kts 12°
2026-05-07 16:01 -22.50989 24.59763 37069 ft 470 kts 12°
2026-05-07 16:01 -22.44928 24.62319 37070 ft 470 kts 12°
2026-05-07 16:02 -22.38843 24.64876 37063 ft 470 kts 12°
2026-05-07 16:02 -22.32753 24.67414 37066 ft 469 kts 12°
2026-05-07 16:03 -22.26648 24.69952 37059 ft 469 kts 12°
2026-05-07 16:03 -22.20564 24.72479 37077 ft 469 kts 12°
2026-05-07 16:04 -22.14532 24.74982 37070 ft 468 kts 12°
2026-05-07 16:04 -22.08447 24.77506 37056 ft 468 kts 12°
2026-05-07 16:05 -22.02373 24.80023 37066 ft 468 kts 12°
2026-05-07 16:05 -21.96276 24.82546 37059 ft 468 kts 12°
2026-05-07 16:06 -21.90246 24.85040 37058 ft 468 kts 12°
2026-05-07 16:06 -21.84166 24.87552 37060 ft 468 kts 12°
2026-05-07 16:07 -21.78089 24.90061 37056 ft 468 kts 12°
2026-05-07 16:07 -21.72011 24.92567 37058 ft 468 kts 12°
2026-05-07 16:08 -21.65984 24.95050 37047 ft 467 kts 12°
2026-05-07 16:08 -21.59912 24.97550 37057 ft 468 kts 12°
2026-05-07 16:09 -21.53831 25.00051 37045 ft 467 kts 12°
2026-05-07 16:09 -21.47769 25.02543 37054 ft 468 kts 12°
2026-05-07 16:10 -21.41727 25.05023 37050 ft 467 kts 13°
2026-05-07 16:10 -21.35637 25.07521 37047 ft 468 kts 13°
2026-05-07 16:11 -21.29582 25.10000 37043 ft 467 kts 13°
2026-05-07 16:11 -21.23536 25.12467 37040 ft 467 kts 13°
2026-05-07 16:12 -21.17455 25.14945 37048 ft 467 kts 13°
2026-05-07 16:12 -21.11376 25.17420 37036 ft 467 kts 13°
2026-05-07 16:13 -21.05325 25.19881 37052 ft 467 kts 13°
2026-05-07 16:13 -20.99215 25.22389 37042 ft 468 kts 13°
2026-05-07 16:14 -20.93188 25.24911 37053 ft 468 kts 13°
2026-05-07 16:14 -20.87135 25.27449 37047 ft 468 kts 13°
2026-05-07 16:15 -20.81049 25.29999 37044 ft 469 kts 13°
2026-05-07 16:15 -20.74996 25.32532 37055 ft 468 kts 13°
2026-05-07 16:16 -20.68925 25.35070 37056 ft 469 kts 13°
2026-05-07 16:16 -20.62888 25.37591 37061 ft 468 kts 13°
2026-05-07 16:17 -20.56839 25.40244 37057 ft 474 kts 18°
2026-05-07 16:17 -20.50994 25.43559 37070 ft 478 kts 20°
2026-05-07 16:18 -20.45152 25.46953 37061 ft 478 kts 20°
2026-05-07 16:18 -20.39315 25.50341 37063 ft 478 kts 20°
2026-05-07 16:19 -20.33499 25.53710 37080 ft 478 kts 20°
2026-05-07 16:19 -20.27668 25.57086 37075 ft 478 kts 20°
2026-05-07 16:20 -20.21833 25.60460 37059 ft 478 kts 20°
2026-05-07 16:20 -20.15980 25.63843 37074 ft 478 kts 20°
2026-05-07 16:21 -20.10207 25.67176 37067 ft 478 kts 20°
2026-05-07 16:21 -20.04312 25.70575 37071 ft 479 kts 20°
2026-05-07 16:22 -19.98460 25.73948 37071 ft 479 kts 20°
2026-05-07 16:22 -19.92607 25.77319 37077 ft 479 kts 20°
2026-05-07 16:23 -19.86754 25.80684 37066 ft 476 kts 17°
2026-05-07 16:23 -19.80804 25.83678 37073 ft 475 kts 16°
2026-05-07 16:24 -19.74790 25.86655 37074 ft 482 kts 15°
2026-05-07 16:24 -19.68713 25.89670 37064 ft 480 kts 15°
2026-05-07 16:25 -19.62660 25.92667 37073 ft 481 kts 15°
2026-05-07 16:25 -19.56635 25.95649 37066 ft 480 kts 15°
2026-05-07 16:26 -19.50584 25.98641 37079 ft 480 kts 14°
2026-05-07 16:26 -19.44511 26.01643 37068 ft 480 kts 14°
2026-05-07 16:27 -19.38453 26.04634 37071 ft 480 kts 14°
2026-05-07 16:27 -19.32469 26.07665 37070 ft 487 kts 20°
2026-05-07 16:27 -19.29613 26.09682 37069 ft 499 kts 29°
2026-05-07 16:28 -19.27010 26.12174 37088 ft 511 kts 39°
2026-05-07 16:28 -19.22817 26.18367 37067 ft 528 kts 57°
2026-05-07 16:29 -19.20311 26.25659 37075 ft 538 kts 74°
2026-05-07 16:29 -19.18799 26.33450 37068 ft 539 kts 74°
2026-05-07 16:30 -19.16237 26.40789 37088 ft 528 kts 56°
2026-05-07 16:30 -19.12060 26.46881 37085 ft 510 kts 37°
2026-05-07 16:30 -19.09358 26.49435 37087 ft 499 kts 28°
2026-05-07 16:31 -19.06551 26.51389 37078 ft 487 kts 19°
2026-05-07 16:31 -19.03472 26.52891 37079 ft 473 kts
2026-05-07 16:31 -19.00396 26.53815 37090 ft 459 kts 360°
2026-05-07 16:31 -18.97250 26.54201 37082 ft 445 kts 350°
2026-05-07 16:32 -18.94246 26.54063 36644 ft 431 kts 341°
2026-05-07 16:32 -18.91364 26.53408 35857 ft 415 kts 332°
2026-05-07 16:32 -18.88762 26.52257 35208 ft 399 kts 322°
2026-05-07 16:32 -18.86502 26.50660 34534 ft 384 kts 311°
2026-05-07 16:33 -18.84577 26.48755 33874 ft 376 kts 307°
2026-05-07 16:33 -18.82788 26.46762 32602 ft 382 kts 306°
2026-05-07 16:33 -18.81012 26.44605 31042 ft 400 kts 306°
2026-05-07 16:33 -18.79228 26.42272 29501 ft 416 kts 305°
2026-05-07 16:34 -18.77471 26.39859 28514 ft 415 kts 305°
2026-05-07 16:34 -18.75742 26.37443 27646 ft 412 kts 304°
2026-05-07 16:34 -18.74033 26.35033 26791 ft 408 kts 304°
2026-05-07 16:34 -18.72333 26.32620 25975 ft 405 kts 304°
2026-05-07 16:35 -18.70670 26.30246 25191 ft 402 kts 304°
2026-05-07 16:35 -18.69025 26.27891 24419 ft 400 kts 304°
2026-05-07 16:35 -18.67383 26.25530 23669 ft 397 kts 304°
2026-05-07 16:35 -18.65776 26.23218 22871 ft 394 kts 304°
2026-05-07 16:36 -18.64171 26.20911 22119 ft 389 kts 304°
2026-05-07 16:36 -18.62580 26.18634 21386 ft 384 kts 304°
2026-05-07 16:36 -18.60991 26.16368 20672 ft 380 kts 304°
2026-05-07 16:36 -18.59431 26.14154 19989 ft 375 kts 304°
2026-05-07 16:37 -18.57880 26.11964 19320 ft 372 kts 304°
2026-05-07 16:37 -18.56326 26.09781 18660 ft 368 kts 304°
2026-05-07 16:37 -18.54804 26.07654 17975 ft 364 kts 305°
2026-05-07 16:37 -18.53299 26.05556 17257 ft 360 kts 305°
2026-05-07 16:38 -18.51781 26.03439 16549 ft 357 kts 305°
2026-05-07 16:38 -18.50294 26.01368 15860 ft 353 kts 305°
2026-05-07 16:38 -18.48835 25.99331 15202 ft 351 kts 305°
2026-05-07 16:38 -18.47375 25.97292 14547 ft 348 kts 305°
2026-05-07 16:39 -18.45921 25.95259 13919 ft 346 kts 305°
2026-05-07 16:39 -18.44483 25.93243 13254 ft 342 kts 305°
2026-05-07 16:39 -18.43066 25.91254 12620 ft 338 kts 305°
2026-05-07 16:39 -18.41665 25.89282 12008 ft 334 kts 305°
2026-05-07 16:40 -18.40299 25.87356 11414 ft 331 kts 305°
2026-05-07 16:40 -18.38929 25.85419 10831 ft 327 kts 305°
2026-05-07 16:40 -18.37586 25.83514 10260 ft 324 kts 305°
2026-05-07 16:40 -18.36255 25.81623 9657 ft 320 kts 305°
2026-05-07 16:41 -18.34930 25.79740 8984 ft 319 kts 305°
2026-05-07 16:41 -18.33604 25.77854 8305 ft 319 kts 305°
2026-05-07 16:41 -18.32288 25.75984 7650 ft 318 kts 305°
2026-05-07 16:41 -18.30968 25.74104 7011 ft 318 kts 305°
2026-05-07 16:42 -18.29662 25.72251 6379 ft 317 kts 305°
2026-05-07 16:42 -18.28367 25.70423 5755 ft 316 kts 305°
2026-05-07 16:42 -18.27054 25.68579 5297 ft 309 kts 305°
2026-05-07 16:42 -18.25760 25.66769 5167 ft 310 kts 305°
2026-05-07 16:43 -18.24477 25.64974 5111 ft 312 kts 305°
2026-05-07 16:43 -18.23160 25.63139 5070 ft 313 kts 305°
2026-05-07 16:43 -18.21850 25.61313 5083 ft 313 kts 305°
2026-05-07 16:43 -18.20537 25.59480 5089 ft 314 kts 305°
2026-05-07 16:44 -18.19225 25.57657 5100 ft 315 kts 305°
2026-05-07 16:44 -18.17923 25.55844 5113 ft 314 kts 305°
2026-05-07 16:44 -18.16591 25.54001 5105 ft 313 kts 306°
2026-05-07 16:44 -18.15293 25.52191 5092 ft 315 kts 306°
2026-05-07 16:45 -18.13980 25.50355 5110 ft 314 kts 306°
2026-05-07 16:45 -18.12663 25.48516 5112 ft 314 kts 306°
2026-05-07 16:45 -18.11355 25.46692 5111 ft 313 kts 306°
2026-05-07 16:45 -18.10042 25.44866 5109 ft 314 kts 306°
2026-05-07 16:46 -18.08730 25.43039 5107 ft 313 kts 306°
2026-05-07 16:46 -18.07417 25.41213 5106 ft 313 kts 306°
2026-05-07 16:46 -18.06102 25.39386 5106 ft 313 kts 306°
2026-05-07 16:46 -18.04787 25.37565 5104 ft 313 kts 306°
2026-05-07 16:47 -18.03483 25.35762 5091 ft 314 kts 306°
2026-05-07 16:47 -18.02155 25.33943 5093 ft 315 kts 306°
2026-05-07 16:47 -18.00825 25.32125 5101 ft 315 kts 306°
2026-05-07 16:47 -17.99479 25.30284 5107 ft 315 kts 306°
2026-05-07 16:48 -17.98156 25.28470 5103 ft 314 kts 306°
2026-05-07 16:48 -17.96820 25.26643 5098 ft 315 kts 306°